Time,TemperatureF,DewpointF,PressureIn,WindDirection,WindDirectionDegrees,WindSpeedMPH,WindSpeedGustMPH,Humidity,HourlyPrecipIn,Conditions,Clouds,dailyrainin,SoftwareType,DateUTC
2013-02-17 00:00:00,30.4,5.4,29.97,WSW,248,7.0,16.0,34,0.00,,---,0.00,VWS V14.01,2013-02-17 07:00:00,
2013-02-17 00:05:00,30.1,5.1,29.96,West,278,5.0,8.0,34,0.00,,---,0.00,VWS V14.01,2013-02-17 07:05:00,
2013-02-17 00:10:00,29.9,5.6,29.96,SW,219,2.0,18.0,35,0.00,,---,0.00,VWS V14.01,2013-02-17 07:10:00,
2013-02-17 00:15:00,29.8,5.5,29.95,SSW,212,7.0,18.0,35,0.00,,---,0.00,VWS V14.01,2013-02-17 07:15:00,
2013-02-17 00:20:00,29.7,5.4,29.95,West,276,5.0,19.0,35,0.00,,---,0.00,VWS V14.01,2013-02-17 07:20:00,
2013-02-17 00:25:00,29.8,5.5,29.96,SW,225,6.0,19.0,35,0.00,,---,0.00,VWS V14.01,2013-02-17 07:25:00,
2013-02-17 00:30:00,29.7,5.4,29.96,WSW,239,5.0,19.0,35,0.00,,---,0.00,VWS V14.01,2013-02-17 07:30:00,
2013-02-17 00:35:00,29.7,5.4,29.95,SW,217,3.0,12.0,35,0.00,,---,0.00,VWS V14.01,2013-02-17 07:35:00,
2013-02-17 00:40:00,29.7,5.4,29.95,WSW,238,6.0,16.0,35,0.00,,---,0.00,VWS V14.01,2013-02-17 07:40:00,
2013-02-17 00:45:00,29.7,5.4,29.95,WSW,238,7.0,16.0,35,0.00,,---,0.00,VWS V14.01,2013-02-17 07:45:00,
2013-02-17 00:50:00,29.7,4.8,29.95,SW,231,3.0,16.0,34,0.00,,---,0.00,VWS V14.01,2013-02-17 07:50:00,
2013-02-17 00:55:00,29.7,4.8,29.94,WSW,239,5.0,17.0,34,0.00,,---,0.00,VWS V14.01,2013-02-17 07:55:00,
2013-02-17 01:00:00,29.7,4.8,29.95,ESE,104,4.0,17.0,34,0.00,,---,0.00,VWS V14.01,2013-02-17 08:00:00,
2013-02-17 01:05:00,29.7,4.8,29.95,NNW,335,5.0,5.0,34,0.00,,---,0.00,VWS V14.01,2013-02-17 08:05:00,
2013-02-17 01:10:00,29.8,4.9,29.95,West,274,9.0,17.0,34,0.00,,---,0.00,VWS V14.01,2013-02-17 08:10:00,
2013-02-17 01:15:00,29.8,4.9,29.95,West,270,7.0,18.0,34,0.00,,---,0.00,VWS V14.01,2013-02-17 08:15:00,
2013-02-17 01:20:00,29.8,4.9,29.95,ESE,120,5.0,18.0,34,0.00,,---,0.00,VWS V14.01,2013-02-17 08:20:00,
2013-02-17 01:25:00,29.7,4.8,29.95,WNW,285,13.0,18.0,34,0.00,,---,0.00,VWS V14.01,2013-02-17 08:25:00,
2013-02-17 01:30:00,29.7,4.8,29.95,West,262,7.0,18.0,34,0.00,,---,0.00,VWS V14.01,2013-02-17 08:30:00,
2013-02-17 01:35:00,29.6,4.7,29.96,West,276,4.0,10.0,34,0.00,,---,0.00,VWS V14.01,2013-02-17 08:35:00,
2013-02-17 01:40:00,29.6,4.7,29.96,West,259,11.0,12.0,34,0.00,,---,0.00,VWS V14.01,2013-02-17 08:40:00,
2013-02-17 01:45:00,29.6,4.7,29.96,WSW,248,8.0,13.0,34,0.00,,---,0.00,VWS V14.01,2013-02-17 08:45:00,
2013-02-17 01:50:00,29.5,4.6,29.97,West,264,5.0,13.0,34,0.00,,---,0.00,VWS V14.01,2013-02-17 08:50:00,
2013-02-17 01:55:00,29.4,4.5,29.97,West,271,6.0,13.0,34,0.00,,---,0.00,VWS V14.01,2013-02-17 08:55:00,
2013-02-17 02:00:00,29.4,4.5,29.98,West,259,5.0,13.0,34,0.00,,---,0.00,VWS V14.01,2013-02-17 09:00:00,
2013-02-17 02:05:00,29.4,4.5,29.99,WSW,257,5.0,7.0,34,0.00,,---,0.00,VWS V14.01,2013-02-17 09:05:00,
2013-02-17 02:10:00,29.3,5.1,29.99,WSW,243,4.0,7.0,35,0.00,,---,0.00,VWS V14.01,2013-02-17 09:10:00,
2013-02-17 02:15:00,29.3,4.4,29.99,East,97,3.0,9.0,34,0.00,,---,0.00,VWS V14.01,2013-02-17 09:15:00,
2013-02-17 02:20:00,29.4,4.5,29.99,South,180,3.0,9.0,34,0.00,,---,0.00,VWS V14.01,2013-02-17 09:20:00,
2013-02-17 02:25:00,29.1,4.2,30.00,West,267,2.0,9.0,34,0.00,,---,0.00,VWS V14.01,2013-02-17 09:25:00,
2013-02-17 02:30:00,29.2,4.3,29.99,SW,233,1.0,9.0,34,0.00,,---,0.00,VWS V14.01,2013-02-17 09:30:00,
2013-02-17 02:35:00,29.3,4.4,29.99,South,179,0.0,4.0,34,0.00,,---,0.00,VWS V14.01,2013-02-17 09:35:00,
2013-02-17 02:40:00,29.2,4.3,29.98,South,176,2.0,7.0,34,0.00,,---,0.00,VWS V14.01,2013-02-17 09:40:00,
2013-02-17 02:45:00,29.0,4.2,29.98,SSE,162,2.0,7.0,34,0.00,,---,0.00,VWS V14.01,2013-02-17 09:45:00,
2013-02-17 02:50:00,29.1,4.2,29.97,SW,226,4.0,7.0,34,0.00,,---,0.00,VWS V14.01,2013-02-17 09:50:00,
2013-02-17 02:55:00,28.8,4.0,29.97,ENE,77,2.0,7.0,34,0.00,,---,0.00,VWS V14.01,2013-02-17 09:55:00,
2013-02-17 03:00:00,28.7,3.9,29.97,SW,222,1.0,7.0,34,0.00,,---,0.00,VWS V14.01,2013-02-17 10:00:00,
2013-02-17 03:05:00,28.6,3.8,29.96,South,173,4.0,7.0,34,0.00,,---,0.00,VWS V14.01,2013-02-17 10:05:00,
2013-02-17 03:10:00,28.5,3.7,29.95,NW,311,0.0,7.0,34,0.00,,---,0.00,VWS V14.01,2013-02-17 10:10:00,
2013-02-17 03:15:00,27.9,3.8,29.95,NNW,344,2.0,7.0,35,0.00,,---,0.00,VWS V14.01,2013-02-17 10:15:00,
2013-02-17 03:20:00,27.2,3.8,29.95,East,98,0.0,7.0,36,0.00,,---,0.00,VWS V14.01,2013-02-17 10:20:00,
2013-02-17 03:25:00,26.8,4.0,29.93,ESE,105,2.0,7.0,37,0.00,,---,0.00,VWS V14.01,2013-02-17 10:25:00,
2013-02-17 03:30:00,26.7,3.9,29.94,East,85,0.0,7.0,37,0.00,,---,0.00,VWS V14.01,2013-02-17 10:30:00,
2013-02-17 03:35:00,26.9,4.1,29.93,SSE,158,2.0,2.0,37,0.00,,---,0.00,VWS V14.01,2013-02-17 10:35:00,
2013-02-17 03:40:00,26.8,3.4,29.93,ESE,122,0.0,4.0,36,0.00,,---,0.00,VWS V14.01,2013-02-17 10:40:00,
2013-02-17 03:45:00,27.6,2.9,29.92,SE,124,4.0,6.0,34,0.00,,---,0.00,VWS V14.01,2013-02-17 10:45:00,
2013-02-17 03:50:00,28.0,2.0,29.91,SSE,153,5.0,6.0,32,0.00,,---,0.00,VWS V14.01,2013-02-17 10:50:00,
2013-02-17 03:55:00,28.6,1.8,29.91,ESE,102,2.0,6.0,31,0.00,,---,0.00,VWS V14.01,2013-02-17 10:55:00,
2013-02-17 04:00:00,28.6,1.8,29.91,ESE,108,0.0,6.0,31,0.00,,---,0.00,VWS V14.01,2013-02-17 11:00:00,
2013-02-17 04:05:00,28.6,1.8,29.90,East,91,6.0,8.0,31,0.00,,---,0.00,VWS V14.01,2013-02-17 11:05:00,
2013-02-17 04:10:00,28.6,2.5,29.91,East,97,2.0,8.0,32,0.00,,---,0.00,VWS V14.01,2013-02-17 11:10:00,
2013-02-17 04:14:00,28.4,1.6,29.92,ESE,103,0.0,8.0,31,0.00,,---,0.00,VWS V14.01,2013-02-17 11:14:00,
2013-02-17 04:19:00,28.5,1.0,29.91,ESE,119,0.0,8.0,30,0.00,,---,0.00,VWS V14.01,2013-02-17 11:19:00,
2013-02-17 04:24:00,28.3,0.1,29.91,SW,235,4.0,8.0,29,0.00,,---,0.00,VWS V14.01,2013-02-17 11:24:00,
2013-02-17 04:29:00,28.7,0.5,29.91,ESE,110,2.0,8.0,29,0.00,,---,0.00,VWS V14.01,2013-02-17 11:29:00,
2013-02-17 04:34:00,28.8,-1.0,29.91,ESE,117,3.0,3.0,27,0.00,,---,0.00,VWS V14.01,2013-02-17 11:34:00,
2013-02-17 04:39:00,28.9,-0.1,29.90,South,176,0.0,4.0,28,0.00,,---,0.00,VWS V14.01,2013-02-17 11:39:00,
2013-02-17 04:44:00,28.9,-0.1,29.89,South,176,0.0,4.0,28,0.00,,---,0.00,VWS V14.01,2013-02-17 11:44:00,
2013-02-17 04:49:00,28.9,-0.1,29.89,South,176,0.0,4.0,28,0.00,,---,0.00,VWS V14.01,2013-02-17 11:49:00,
2013-02-17 04:54:00,28.9,-0.1,29.88,South,176,0.0,4.0,28,0.00,,---,0.00,VWS V14.01,2013-02-17 11:54:00,
2013-02-17 04:59:00,28.9,-0.1,29.88,South,176,0.0,4.0,28,0.00,,---,0.00,VWS V14.01,2013-02-17 11:59:00,
2013-02-17 05:04:00,28.9,-0.1,29.88,South,176,0.0,0.0,28,0.00,,---,0.00,VWS V14.01,2013-02-17 12:04:00,
2013-02-17 05:09:00,28.9,-0.1,29.85,South,176,0.0,0.0,28,0.00,,---,0.00,VWS V14.01,2013-02-17 12:09:00,
2013-02-17 05:14:00,28.9,-0.1,29.85,South,176,0.0,0.0,28,0.00,,---,0.00,VWS V14.01,2013-02-17 12:14:00,
2013-02-17 05:19:00,28.9,-0.1,29.86,South,176,0.0,0.0,28,0.00,,---,0.00,VWS V14.01,2013-02-17 12:19:00,
2013-02-17 05:24:00,28.9,-0.1,29.86,South,176,0.0,0.0,28,0.00,,---,0.00,VWS V14.01,2013-02-17 12:24:00,
2013-02-17 05:29:00,28.9,-0.1,29.85,South,176,0.0,0.0,28,0.00,,---,0.00,VWS V14.01,2013-02-17 12:29:00,
2013-02-17 05:34:00,28.9,-0.1,29.85,South,176,0.0,0.0,28,0.00,,---,0.00,VWS V14.01,2013-02-17 12:34:00,
2013-02-17 05:39:00,28.9,-0.1,29.84,South,176,0.0,0.0,28,0.00,,---,0.00,VWS V14.01,2013-02-17 12:39:00,
2013-02-17 05:44:00,28.9,-0.1,29.83,South,176,0.0,0.0,28,0.00,,---,0.00,VWS V14.01,2013-02-17 12:44:00,
2013-02-17 05:49:00,28.9,-0.1,29.82,South,176,0.0,0.0,28,0.00,,---,0.00,VWS V14.01,2013-02-17 12:49:00,
2013-02-17 05:54:00,28.9,-0.1,29.82,South,176,0.0,0.0,28,0.00,,---,0.00,VWS V14.01,2013-02-17 12:54:00,
2013-02-17 05:59:00,28.9,-0.1,29.82,South,176,0.0,0.0,28,0.00,,---,0.00,VWS V14.01,2013-02-17 12:59:00,
2013-02-17 06:04:00,28.9,-0.1,29.82,South,176,0.0,0.0,28,0.00,,---,0.00,VWS V14.01,2013-02-17 13:04:00,
2013-02-17 06:09:00,28.9,-0.1,29.80,South,176,0.0,0.0,28,0.00,,---,0.00,VWS V14.01,2013-02-17 13:09:00,
2013-02-17 06:14:00,28.9,-0.1,29.81,South,176,0.0,0.0,28,0.00,,---,0.00,VWS V14.01,2013-02-17 13:14:00,
2013-02-17 06:19:00,28.9,-0.1,29.81,South,176,0.0,0.0,28,0.00,,---,0.00,VWS V14.01,2013-02-17 13:19:00,
2013-02-17 06:24:00,28.9,-0.1,29.81,South,176,0.0,0.0,28,0.00,,---,0.00,VWS V14.01,2013-02-17 13:24:00,
2013-02-17 06:29:00,28.9,-0.1,29.80,South,176,0.0,0.0,28,0.00,,---,0.00,VWS V14.01,2013-02-17 13:29:00,
2013-02-17 06:34:00,28.9,-0.1,29.79,South,176,0.0,0.0,28,0.00,,---,0.00,VWS V14.01,2013-02-17 13:34:00,
2013-02-17 06:39:00,28.9,-0.1,29.80,South,176,0.0,0.0,28,0.00,,---,0.00,VWS V14.01,2013-02-17 13:39:00,
2013-02-17 06:44:00,28.9,-0.1,29.79,South,176,0.0,0.0,28,0.00,,---,0.00,VWS V14.01,2013-02-17 13:44:00,
2013-02-17 06:49:00,28.9,-0.1,29.79,South,176,0.0,0.0,28,0.00,,---,0.00,VWS V14.01,2013-02-17 13:49:00,
2013-02-17 06:54:00,28.9,-0.1,29.79,South,176,0.0,0.0,28,0.00,,---,0.00,VWS V14.01,2013-02-17 13:54:00,
2013-02-17 06:59:00,28.9,-0.1,29.79,South,176,0.0,0.0,28,0.00,,---,0.00,VWS V14.01,2013-02-17 13:59:00,
2013-02-17 07:04:00,28.9,-0.1,29.78,South,176,0.0,0.0,28,0.00,,---,0.00,VWS V14.01,2013-02-17 14:04:00,
2013-02-17 07:09:00,28.9,-0.1,29.78,South,176,0.0,0.0,28,0.00,,---,0.00,VWS V14.01,2013-02-17 14:09:00,
2013-02-17 07:14:00,28.9,-0.1,29.78,South,176,0.0,0.0,28,0.00,,---,0.00,VWS V14.01,2013-02-17 14:14:00,
2013-02-17 07:19:00,28.9,-0.1,29.78,South,176,0.0,0.0,28,0.00,,---,0.00,VWS V14.01,2013-02-17 14:19:00,
2013-02-17 07:24:00,28.9,-0.1,29.77,South,176,0.0,0.0,28,0.00,,---,0.00,VWS V14.01,2013-02-17 14:24:00,
2013-02-17 07:29:00,28.9,-0.1,29.77,South,176,0.0,0.0,28,0.00,,---,0.00,VWS V14.01,2013-02-17 14:29:00,
2013-02-17 07:34:00,28.9,-0.1,29.77,South,176,0.0,0.0,28,0.00,,---,0.00,VWS V14.01,2013-02-17 14:34:00,
2013-02-17 07:39:00,28.9,-0.1,29.77,South,176,0.0,0.0,28,0.00,,---,0.00,VWS V14.01,2013-02-17 14:39:00,
2013-02-17 07:44:00,28.9,-0.1,29.79,South,176,0.0,0.0,28,0.00,,---,0.00,VWS V14.01,2013-02-17 14:44:00,
2013-02-17 07:49:00,28.9,-0.1,29.78,South,176,0.0,0.0,28,0.00,,---,0.00,VWS V14.01,2013-02-17 14:49:00,
2013-02-17 07:54:00,28.9,-0.1,29.79,South,176,0.0,0.0,28,0.00,,---,0.00,VWS V14.01,2013-02-17 14:54:00,
2013-02-17 07:59:00,28.9,-0.1,29.80,South,176,0.0,0.0,28,0.00,,---,0.00,VWS V14.01,2013-02-17 14:59:00,
2013-02-17 08:04:00,32.8,-3.8,29.80,SW,234,4.0,7.0,20,0.00,,---,0.00,VWS V14.01,2013-02-17 15:04:00,
2013-02-17 08:09:00,33.3,-4.5,29.80,WSW,246,3.0,9.0,19,0.00,,---,0.00,VWS V14.01,2013-02-17 15:09:00,
2013-02-17 08:14:00,33.8,-5.2,29.79,SW,228,2.0,9.0,18,0.00,,---,0.00,VWS V14.01,2013-02-17 15:14:00,
2013-02-17 08:19:00,34.6,-4.5,29.78,SSE,160,2.0,9.0,18,0.00,,---,0.00,VWS V14.01,2013-02-17 15:19:00,
2013-02-17 08:24:00,35.4,-5.1,29.77,WNW,291,4.0,14.0,17,0.00,,---,0.00,VWS V14.01,2013-02-17 15:24:00,
2013-02-17 08:29:00,36.2,-5.7,29.77,SW,235,5.0,14.0,16,0.00,,---,0.00,VWS V14.01,2013-02-17 15:29:00,
2013-02-17 08:34:00,36.6,-5.3,29.76,ESE,110,1.0,8.0,16,0.00,,---,0.00,VWS V14.01,2013-02-17 15:34:00,
2013-02-17 08:39:00,37.3,-4.8,29.75,West,265,2.0,8.0,16,0.00,,---,0.00,VWS V14.01,2013-02-17 15:39:00,
2013-02-17 08:44:00,38.0,-4.2,29.74,West,269,1.0,8.0,16,0.00,,---,0.00,VWS V14.01,2013-02-17 15:44:00,
2013-02-17 08:49:00,38.6,-3.7,29.74,West,270,5.0,10.0,16,0.00,,---,0.00,VWS V14.01,2013-02-17 15:49:00,
2013-02-17 08:54:00,39.1,-4.6,29.74,ESE,107,1.0,10.0,15,0.00,,---,0.00,VWS V14.01,2013-02-17 15:54:00,
2013-02-17 08:59:00,39.7,-1.5,29.73,WSW,248,9.0,13.0,17,0.00,,---,0.00,VWS V14.01,2013-02-17 15:59:00,
2013-02-17 09:04:00,39.7,-2.8,29.74,SE,141,4.0,5.0,16,0.00,,---,0.00,VWS V14.01,2013-02-17 16:04:00,
2013-02-17 09:09:00,39.6,-0.4,29.74,South,177,2.0,11.0,18,0.00,,---,0.00,VWS V14.01,2013-02-17 16:09:00,
2013-02-17 09:14:00,40.3,-2.3,29.75,NW,324,4.0,11.0,16,0.00,,---,0.00,VWS V14.01,2013-02-17 16:14:00,
2013-02-17 09:19:00,40.3,-2.3,29.74,NNE,18,3.0,11.0,16,0.00,,---,0.00,VWS V14.01,2013-02-17 16:19:00,
2013-02-17 09:24:00,40.3,-1.0,29.74,SSE,161,5.0,11.0,17,0.00,,---,0.00,VWS V14.01,2013-02-17 16:24:00,
2013-02-17 09:29:00,40.5,-0.9,29.74,East,96,1.0,11.0,17,0.00,,---,0.00,VWS V14.01,2013-02-17 16:29:00,
2013-02-17 09:34:00,41.2,-0.3,29.74,ESE,114,2.0,2.0,17,0.00,,---,0.00,VWS V14.01,2013-02-17 16:34:00,
2013-02-17 09:39:00,41.4,-1.4,29.75,ESE,120,0.0,10.0,16,0.00,,---,0.00,VWS V14.01,2013-02-17 16:39:00,
2013-02-17 09:44:00,41.1,-1.7,29.75,SSW,197,2.0,10.0,16,0.00,,---,0.00,VWS V14.01,2013-02-17 16:44:00,
2013-02-17 09:49:00,40.4,-2.2,29.75,SW,231,2.0,10.0,16,0.00,,---,0.00,VWS V14.01,2013-02-17 16:49:00,
2013-02-17 09:54:00,39.4,-3.0,29.75,SSE,157,5.0,12.0,16,0.00,,---,0.00,VWS V14.01,2013-02-17 16:54:00,
2013-02-17 09:59:00,38.9,-2.2,29.75,SSE,154,8.0,12.0,17,0.00,,---,0.00,VWS V14.01,2013-02-17 16:59:00,
2013-02-17 10:04:00,38.6,-2.4,29.75,ESE,122,3.0,5.0,17,0.00,,---,0.00,VWS V14.01,2013-02-17 17:04:00,
2013-02-17 10:09:00,38.2,-1.6,29.74,West,280,2.0,10.0,18,0.00,,---,0.00,VWS V14.01,2013-02-17 17:09:00,
2013-02-17 10:14:00,38.0,-1.7,29.74,SW,228,0.0,10.0,18,0.00,,---,0.00,VWS V14.01,2013-02-17 17:14:00,
2013-02-17 10:19:00,38.2,-2.8,29.73,NW,311,2.0,10.0,17,0.00,,---,0.00,VWS V14.01,2013-02-17 17:19:00,
2013-02-17 10:24:00,38.1,-1.6,29.73,NW,315,4.0,10.0,18,0.00,,---,0.00,VWS V14.01,2013-02-17 17:24:00,
2013-02-17 10:29:00,37.9,-3.0,29.74,South,190,4.0,10.0,17,0.00,,---,0.00,VWS V14.01,2013-02-17 17:29:00,
2013-02-17 10:34:00,37.9,-3.0,29.74,WSW,252,4.0,4.0,17,0.00,,---,0.00,VWS V14.01,2013-02-17 17:34:00,
2013-02-17 10:39:00,37.8,-1.9,29.73,ESE,120,2.0,13.0,18,0.00,,---,0.00,VWS V14.01,2013-02-17 17:39:00,
2013-02-17 10:44:00,37.8,-1.9,29.73,WNW,287,2.0,13.0,18,0.00,,---,0.00,VWS V14.01,2013-02-17 17:44:00,
2013-02-17 10:49:00,37.9,-1.8,29.73,NNW,333,1.0,13.0,18,0.00,,---,0.00,VWS V14.01,2013-02-17 17:49:00,
2013-02-17 10:54:00,38.0,-2.9,29.73,West,277,3.0,13.0,17,0.00,,---,0.00,VWS V14.01,2013-02-17 17:54:00,
2013-02-17 10:59:00,37.9,-4.3,29.73,NNW,340,1.0,13.0,16,0.00,,---,0.00,VWS V14.01,2013-02-17 17:59:00,
2013-02-17 11:04:00,38.1,-2.8,29.73,SSE,165,3.0,5.0,17,0.00,,---,0.00,VWS V14.01,2013-02-17 18:04:00,
2013-02-17 11:09:00,38.0,-2.9,29.73,ESE,110,1.0,10.0,17,0.00,,---,0.00,VWS V14.01,2013-02-17 18:09:00,
2013-02-17 11:14:00,38.0,-2.9,29.73,SW,218,3.0,10.0,17,0.00,,---,0.00,VWS V14.01,2013-02-17 18:14:00,
2013-02-17 11:19:00,38.0,-2.9,29.72,SSW,197,8.0,11.0,17,0.00,,---,0.00,VWS V14.01,2013-02-17 18:19:00,
2013-02-17 11:24:00,38.1,-2.8,29.73,South,184,2.0,11.0,17,0.00,,---,0.00,VWS V14.01,2013-02-17 18:24:00,
2013-02-17 11:29:00,38.2,-2.8,29.72,SSE,164,2.0,11.0,17,0.00,,---,0.00,VWS V14.01,2013-02-17 18:29:00,
2013-02-17 11:34:00,38.3,-2.7,29.72,SE,135,1.0,4.0,17,0.00,,---,0.00,VWS V14.01,2013-02-17 18:34:00,
2013-02-17 11:39:00,38.5,-1.3,29.72,South,181,3.0,9.0,18,0.00,,---,0.00,VWS V14.01,2013-02-17 18:39:00,
2013-02-17 11:44:00,38.5,-2.5,29.72,ESE,123,2.0,9.0,17,0.00,,---,0.00,VWS V14.01,2013-02-17 18:44:00,
2013-02-17 11:49:00,38.5,-2.5,29.72,WNW,283,0.0,13.0,17,0.00,,---,0.00,VWS V14.01,2013-02-17 18:49:00,
2013-02-17 11:54:00,38.6,-1.2,29.70,SE,145,5.0,13.0,18,0.00,,---,0.00,VWS V14.01,2013-02-17 18:54:00,
2013-02-17 11:59:00,38.8,-1.1,29.70,WSW,245,4.0,17.0,18,0.00,,---,0.00,VWS V14.01,2013-02-17 18:59:00,
2013-02-17 12:04:00,39.5,-1.7,29.70,WSW,257,2.0,3.0,17,0.00,,---,0.00,VWS V14.01,2013-02-17 19:04:00,
2013-02-17 12:09:00,40.5,-0.9,29.70,WNW,287,12.0,13.0,17,0.00,,---,0.00,VWS V14.01,2013-02-17 19:09:00,
2013-02-17 12:14:00,40.9,-0.5,29.71,SSE,155,3.0,13.0,17,0.00,,---,0.00,VWS V14.01,2013-02-17 19:14:00,
2013-02-17 12:19:00,41.2,-1.6,29.70,SSW,205,1.0,16.0,16,0.00,,---,0.00,VWS V14.01,2013-02-17 19:19:00,
2013-02-17 12:24:00,41.6,0.0,29.70,SSW,193,8.0,16.0,17,0.00,,---,0.00,VWS V14.01,2013-02-17 19:24:00,
2013-02-17 12:29:00,42.0,0.4,29.70,SW,224,4.0,16.0,17,0.00,,---,0.00,VWS V14.01,2013-02-17 19:29:00,
2013-02-17 12:34:00,41.4,-1.4,29.70,West,262,2.0,4.0,16,0.00,,---,0.00,VWS V14.01,2013-02-17 19:34:00,
2013-02-17 12:39:00,41.2,-0.3,29.70,SSE,155,5.0,7.0,17,0.00,,---,0.00,VWS V14.01,2013-02-17 19:39:00,
2013-02-17 12:44:00,41.1,-0.4,29.69,WNW,290,3.0,7.0,17,0.00,,---,0.00,VWS V14.01,2013-02-17 19:44:00,
2013-02-17 12:49:00,41.4,2.2,29.69,SE,128,0.0,7.0,19,0.00,,---,0.00,VWS V14.01,2013-02-17 19:49:00,
2013-02-17 12:54:00,42.6,0.9,29.69,NNW,336,1.0,7.0,17,0.00,,---,0.00,VWS V14.01,2013-02-17 19:54:00,
2013-02-17 12:59:00,41.9,0.3,29.69,ESE,112,4.0,7.0,17,0.00,,---,0.00,VWS V14.01,2013-02-17 19:59:00,
2013-02-17 13:04:00,42.2,0.5,29.69,SSW,196,2.0,2.0,17,0.00,,---,0.00,VWS V14.01,2013-02-17 20:04:00,
2013-02-17 13:09:00,43.1,0.0,29.69,West,270,2.0,6.0,16,0.00,,---,0.00,VWS V14.01,2013-02-17 20:09:00,
2013-02-17 13:14:00,42.3,0.6,29.69,North,350,1.0,8.0,17,0.00,,---,0.00,VWS V14.01,2013-02-17 20:14:00,
2013-02-17 13:19:00,42.2,1.8,29.69,South,189,2.0,8.0,18,0.00,,---,0.00,VWS V14.01,2013-02-17 20:19:00,
2013-02-17 13:24:00,42.5,0.8,29.69,East,86,0.0,11.0,17,0.00,,---,0.00,VWS V14.01,2013-02-17 20:24:00,
2013-02-17 13:29:00,42.6,2.1,29.68,SW,232,0.0,11.0,18,0.00,,---,0.00,VWS V14.01,2013-02-17 20:29:00,
2013-02-17 13:34:00,42.7,0.9,29.68,SW,225,1.0,3.0,17,0.00,,---,0.00,VWS V14.01,2013-02-17 20:34:00,
2013-02-17 13:39:00,42.2,-0.8,29.68,West,262,3.0,11.0,16,0.00,,---,0.00,VWS V14.01,2013-02-17 20:39:00,
2013-02-17 13:44:00,42.4,0.7,29.68,SE,144,8.0,11.0,17,0.00,,---,0.00,VWS V14.01,2013-02-17 20:44:00,
2013-02-17 13:49:00,42.0,0.4,29.67,NNW,327,1.0,11.0,17,0.00,,---,0.00,VWS V14.01,2013-02-17 20:49:00,
2013-02-17 13:54:00,42.2,0.5,29.67,SW,214,5.0,11.0,17,0.00,,---,0.00,VWS V14.01,2013-02-17 20:54:00,
2013-02-17 13:59:00,41.2,-0.3,29.67,ESE,120,3.0,11.0,17,0.00,,---,0.00,VWS V14.01,2013-02-17 20:59:00,
2013-02-17 14:04:00,41.4,-0.1,29.66,East,99,1.0,1.0,17,0.00,,---,0.00,VWS V14.01,2013-02-17 21:04:00,
2013-02-17 14:09:00,40.9,0.7,29.67,NW,304,2.0,7.0,18,0.00,,---,0.00,VWS V14.01,2013-02-17 21:09:00,
2013-02-17 14:14:00,41.3,1.0,29.66,SSE,166,3.0,7.0,18,0.00,,---,0.00,VWS V14.01,2013-02-17 21:14:00,
2013-02-17 14:19:00,41.7,0.1,29.67,SSE,150,1.0,8.0,17,0.00,,---,0.00,VWS V14.01,2013-02-17 21:19:00,
2013-02-17 14:24:00,41.4,-0.1,29.67,SW,228,5.0,8.0,17,0.00,,---,0.00,VWS V14.01,2013-02-17 21:24:00,
2013-02-17 14:29:00,41.1,0.8,29.67,WNW,292,5.0,10.0,18,0.00,,---,0.00,VWS V14.01,2013-02-17 21:29:00,
2013-02-17 14:34:00,40.8,-0.6,29.67,West,270,5.0,13.0,17,0.00,,---,0.00,VWS V14.01,2013-02-17 21:34:00,
2013-02-17 14:39:00,40.2,1.2,29.67,WSW,240,2.0,13.0,19,0.00,,---,0.00,VWS V14.01,2013-02-17 21:39:00,
2013-02-17 14:44:00,40.5,1.5,29.67,NW,323,1.0,13.0,19,0.00,,---,0.00,VWS V14.01,2013-02-17 21:44:00,
2013-02-17 14:49:00,40.4,1.4,29.67,WNW,293,1.0,13.0,19,0.00,,---,0.00,VWS V14.01,2013-02-17 21:49:00,
2013-02-17 14:54:00,40.4,1.4,29.67,South,188,4.0,13.0,19,0.00,,---,0.00,VWS V14.01,2013-02-17 21:54:00,
2013-02-17 14:59:00,40.5,1.5,29.68,WNW,300,5.0,13.0,19,0.00,,---,0.00,VWS V14.01,2013-02-17 21:59:00,
2013-02-17 15:04:00,40.4,1.4,29.68,WSW,253,6.0,8.0,19,0.00,,---,0.00,VWS V14.01,2013-02-17 22:04:00,
2013-02-17 15:09:00,39.9,1.0,29.68,West,262,7.0,10.0,19,0.00,,---,0.00,VWS V14.01,2013-02-17 22:09:00,
2013-02-17 15:14:00,39.5,0.7,29.67,NNW,338,4.0,14.0,19,0.00,,---,0.00,VWS V14.01,2013-02-17 22:14:00,
2013-02-17 15:19:00,39.3,0.5,29.67,WNW,295,5.0,14.0,19,0.00,,---,0.00,VWS V14.01,2013-02-17 22:19:00,
2013-02-17 15:24:00,39.0,1.3,29.67,SW,221,12.0,16.0,20,0.00,,---,0.00,VWS V14.01,2013-02-17 22:24:00,
2013-02-17 15:29:00,39.0,1.3,29.67,West,277,6.0,16.0,20,0.00,,---,0.00,VWS V14.01,2013-02-17 22:29:00,
2013-02-17 15:34:00,38.9,1.3,29.66,WNW,284,3.0,6.0,20,0.00,,---,0.00,VWS V14.01,2013-02-17 22:34:00,
2013-02-17 15:39:00,38.8,1.2,29.67,SSW,195,6.0,12.0,20,0.00,,---,0.00,VWS V14.01,2013-02-17 22:39:00,
2013-02-17 15:44:00,38.9,2.3,29.66,SW,219,6.0,12.0,21,0.00,,---,0.00,VWS V14.01,2013-02-17 22:44:00,
2013-02-17 15:49:00,38.6,1.0,29.66,WSW,240,9.0,12.0,20,0.00,,---,0.00,VWS V14.01,2013-02-17 22:49:00,
2013-02-17 15:54:00,38.4,1.9,29.66,WSW,255,4.0,12.0,21,0.00,,---,0.00,VWS V14.01,2013-02-17 22:54:00,
2013-02-17 15:59:00,38.1,1.6,29.67,West,269,5.0,12.0,21,0.00,,---,0.00,VWS V14.01,2013-02-17 22:59:00,
2013-02-17 16:04:00,37.6,2.2,29.66,SSE,162,6.0,7.0,22,0.00,,---,0.00,VWS V14.01,2013-02-17 23:04:00,
2013-02-17 16:09:00,37.2,1.9,29.66,North,356,8.0,8.0,22,0.00,,---,0.00,VWS V14.01,2013-02-17 23:09:00,
2013-02-17 16:14:00,37.1,1.8,29.67,WSW,253,4.0,8.0,22,0.00,,---,0.00,VWS V14.01,2013-02-17 23:14:00,
2013-02-17 16:19:00,37.1,1.8,29.66,WSW,242,3.0,9.0,22,0.00,,---,0.00,VWS V14.01,2013-02-17 23:19:00,
2013-02-17 16:24:00,36.9,2.6,29.66,SSW,194,5.0,11.0,23,0.00,,---,0.00,VWS V14.01,2013-02-17 23:24:00,
2013-02-17 16:29:00,36.8,2.5,29.66,SW,235,1.0,11.0,23,0.00,,---,0.00,VWS V14.01,2013-02-17 23:29:00,
2013-02-17 16:34:00,36.8,2.5,29.66,WSW,240,6.0,6.0,23,0.00,,---,0.00,VWS V14.01,2013-02-17 23:34:00,
2013-02-17 16:39:00,37.1,2.7,29.66,NNE,33,4.0,6.0,23,0.00,,---,0.00,VWS V14.01,2013-02-17 23:39:00,
2013-02-17 16:44:00,37.3,2.9,29.66,West,274,1.0,6.0,23,0.00,,---,0.00,VWS V14.01,2013-02-17 23:44:00,
2013-02-17 16:49:00,37.4,2.0,29.66,WNW,287,6.0,8.0,22,0.00,,---,0.00,VWS V14.01,2013-02-17 23:49:00,
2013-02-17 16:54:00,37.2,2.8,29.66,West,263,4.0,10.0,23,0.00,,---,0.00,VWS V14.01,2013-02-17 23:54:00,
2013-02-17 16:59:00,37.0,2.7,29.66,WSW,248,6.0,10.0,23,0.00,,---,0.00,VWS V14.01,2013-02-17 23:59:00,
2013-02-17 17:04:00,36.3,3.0,29.66,WSW,245,1.0,3.0,24,0.00,,---,0.00,VWS V14.01,2013-02-18 00:04:00,
2013-02-17 17:09:00,35.7,3.3,29.66,NNW,327,3.0,7.0,25,0.00,,---,0.00,VWS V14.01,2013-02-18 00:09:00,
2013-02-17 17:14:00,35.3,3.0,29.66,SW,228,5.0,8.0,25,0.00,,---,0.00,VWS V14.01,2013-02-18 00:14:00,
2013-02-17 17:19:00,34.9,3.5,29.66,WSW,239,3.0,8.0,26,0.00,,---,0.00,VWS V14.01,2013-02-18 00:19:00,
2013-02-17 17:24:00,34.6,3.2,29.66,SW,229,4.0,8.0,26,0.00,,---,0.00,VWS V14.01,2013-02-18 00:24:00,
2013-02-17 17:29:00,34.4,3.9,29.66,WSW,248,1.0,8.0,27,0.00,,---,0.00,VWS V14.01,2013-02-18 00:29:00,
2013-02-17 17:34:00,34.2,3.7,29.66,NW,325,2.0,2.0,27,0.00,,---,0.00,VWS V14.01,2013-02-18 00:34:00,
2013-02-17 17:39:00,34.1,4.4,29.66,West,260,6.0,10.0,28,0.00,,---,0.00,VWS V14.01,2013-02-18 00:39:00,
2013-02-17 17:44:00,33.9,4.2,29.65,SW,215,4.0,10.0,28,0.00,,---,0.00,VWS V14.01,2013-02-18 00:44:00,
2013-02-17 17:49:00,33.8,4.2,29.66,WSW,248,1.0,10.0,28,0.00,,---,0.00,VWS V14.01,2013-02-18 00:49:00,
2013-02-17 17:54:00,33.6,4.8,29.66,NW,305,3.0,10.0,29,0.00,,---,0.00,VWS V14.01,2013-02-18 00:54:00,
2013-02-17 17:59:00,33.3,4.5,29.66,SW,215,0.0,10.0,29,0.00,,---,0.00,VWS V14.01,2013-02-18 00:59:00,
2013-02-17 18:04:00,33.1,4.3,29.67,SW,235,1.0,1.0,29,0.00,,---,0.00,VWS V14.01,2013-02-18 01:04:00,
2013-02-17 18:09:00,32.9,4.1,29.67,NE,36,1.0,6.0,29,0.00,,---,0.00,VWS V14.01,2013-02-18 01:09:00,
2013-02-17 18:14:00,32.8,4.1,29.67,WSW,252,4.0,9.0,29,0.00,,---,0.00,VWS V14.01,2013-02-18 01:14:00,
2013-02-17 18:19:00,32.7,3.2,29.67,NW,308,1.0,9.0,28,0.00,,---,0.00,VWS V14.01,2013-02-18 01:19:00,
2013-02-17 18:24:00,32.7,3.2,29.67,SSE,152,0.0,9.0,28,0.00,,---,0.00,VWS V14.01,2013-02-18 01:24:00,
2013-02-17 18:29:00,32.6,3.9,29.67,ESE,113,3.0,9.0,29,0.00,,---,0.00,VWS V14.01,2013-02-18 01:29:00,
2013-02-17 18:34:00,32.5,3.8,29.67,SW,231,3.0,5.0,29,0.00,,---,0.00,VWS V14.01,2013-02-18 01:34:00,
2013-02-17 18:39:00,32.4,3.7,29.66,NNW,348,2.0,7.0,29,0.00,,---,0.00,VWS V14.01,2013-02-18 01:39:00,
2013-02-17 18:44:00,32.2,4.3,29.66,West,271,2.0,8.0,30,0.00,,---,0.00,VWS V14.01,2013-02-18 01:44:00,
2013-02-17 18:49:00,32.2,3.5,29.66,WSW,253,4.0,11.0,29,0.00,,---,0.00,VWS V14.01,2013-02-18 01:49:00,
2013-02-17 18:54:00,32.2,3.5,29.65,WSW,252,1.0,11.0,29,0.00,,---,0.00,VWS V14.01,2013-02-18 01:54:00,
2013-02-17 18:59:00,32.2,4.3,29.66,SW,231,8.0,11.0,30,0.00,,---,0.00,VWS V14.01,2013-02-18 01:59:00,
2013-02-17 19:04:00,32.2,5.0,29.65,WNW,291,5.0,5.0,31,0.00,,---,0.00,VWS V14.01,2013-02-18 02:04:00,
2013-02-17 19:09:00,31.8,5.3,29.65,NW,314,4.0,14.0,32,0.00,,---,0.00,VWS V14.01,2013-02-18 02:09:00,
2013-02-17 19:14:00,31.7,5.2,29.65,NNE,18,2.0,14.0,32,0.00,,---,0.00,VWS V14.01,2013-02-18 02:14:00,
2013-02-17 19:19:00,31.5,5.7,29.65,WSW,238,5.0,14.0,33,0.00,,---,0.00,VWS V14.01,2013-02-18 02:19:00,
2013-02-17 19:24:00,31.0,5.9,29.65,WSW,255,2.0,14.0,34,0.00,,---,0.00,VWS V14.01,2013-02-18 02:24:00,
2013-02-17 19:29:00,30.6,6.8,29.66,West,269,5.0,14.0,36,0.00,,---,0.00,VWS V14.01,2013-02-18 02:29:00,
2013-02-17 19:34:00,30.4,6.7,29.66,SW,229,4.0,7.0,36,0.00,,---,0.00,VWS V14.01,2013-02-18 02:34:00,
2013-02-17 19:39:00,30.2,7.1,29.66,NW,304,4.0,11.0,37,0.00,,---,0.00,VWS V14.01,2013-02-18 02:39:00,
2013-02-17 19:44:00,30.1,7.0,29.66,West,276,4.0,11.0,37,0.00,,---,0.00,VWS V14.01,2013-02-18 02:44:00,
2013-02-17 19:49:00,30.0,7.5,29.66,West,262,4.0,12.0,38,0.00,,---,0.00,VWS V14.01,2013-02-18 02:49:00,
2013-02-17 19:54:00,30.0,7.5,29.66,West,277,3.0,12.0,38,0.00,,---,0.00,VWS V14.01,2013-02-18 02:54:00,
2013-02-17 19:59:00,29.8,7.3,29.66,West,270,2.0,13.0,38,0.00,,---,0.00,VWS V14.01,2013-02-18 02:59:00,
2013-02-17 20:04:00,29.6,7.7,29.65,West,259,3.0,4.0,39,0.00,,---,0.00,VWS V14.01,2013-02-18 03:04:00,
2013-02-17 20:09:00,29.4,7.5,29.66,ESE,122,2.0,7.0,39,0.00,,---,0.00,VWS V14.01,2013-02-18 03:09:00,
2013-02-17 20:14:00,29.0,9.3,29.66,West,262,2.0,8.0,43,0.00,,---,0.00,VWS V14.01,2013-02-18 03:14:00,
2013-02-17 20:19:00,28.3,10.7,29.66,WSW,237,2.0,8.0,47,0.00,,---,0.00,VWS V14.01,2013-02-18 03:19:00,
2013-02-17 20:24:00,27.8,11.1,29.66,SW,224,8.0,8.0,49,0.00,,---,0.00,VWS V14.01,2013-02-18 03:24:00,
2013-02-17 20:29:00,27.5,10.9,29.66,SW,225,1.0,8.0,49,0.00,,---,0.00,VWS V14.01,2013-02-18 03:29:00,
2013-02-17 20:34:00,27.4,10.8,29.66,South,191,3.0,7.0,49,0.00,,---,0.00,VWS V14.01,2013-02-18 03:34:00,
2013-02-17 20:39:00,27.3,10.7,29.66,WSW,253,5.0,10.0,49,0.00,,---,0.00,VWS V14.01,2013-02-18 03:39:00,
2013-02-17 20:44:00,27.3,10.7,29.65,West,266,0.0,10.0,49,0.00,,---,0.00,VWS V14.01,2013-02-18 03:44:00,
2013-02-17 20:49:00,27.1,10.9,29.65,North,1,3.0,10.0,50,0.00,,---,0.00,VWS V14.01,2013-02-18 03:49:00,
2013-02-17 20:54:00,26.9,11.6,29.66,WNW,295,4.0,10.0,52,0.00,,---,0.00,VWS V14.01,2013-02-18 03:54:00,
2013-02-17 20:59:00,26.6,12.2,29.66,WNW,303,4.0,13.0,54,0.00,,---,0.00,VWS V14.01,2013-02-18 03:59:00,
2013-02-17 21:04:00,26.3,12.8,29.66,North,1,2.0,3.0,56,0.00,,---,0.00,VWS V14.01,2013-02-18 04:04:00,
2013-02-17 21:09:00,26.5,11.7,29.66,West,264,1.0,12.0,53,0.00,,---,0.00,VWS V14.01,2013-02-18 04:09:00,
2013-02-17 21:14:00,26.4,11.2,29.66,ESE,122,4.0,12.0,52,0.00,,---,0.00,VWS V14.01,2013-02-18 04:14:00,
2013-02-17 21:19:00,26.5,11.7,29.67,SE,144,0.0,12.0,53,0.00,,---,0.00,VWS V14.01,2013-02-18 04:19:00,
2013-02-17 21:24:00,26.3,11.9,29.67,West,280,1.0,12.0,54,0.00,,---,0.00,VWS V14.01,2013-02-18 04:24:00,
2013-02-17 21:29:00,25.9,13.2,29.67,East,86,3.0,12.0,58,0.00,,---,0.00,VWS V14.01,2013-02-18 04:29:00,
2013-02-17 21:34:00,25.5,13.6,29.67,ESE,122,3.0,5.0,60,0.00,,---,0.00,VWS V14.01,2013-02-18 04:34:00,
2013-02-17 21:39:00,24.9,15.2,29.67,SE,130,0.0,5.0,66,0.00,,---,0.00,VWS V14.01,2013-02-18 04:39:00,
2013-02-17 21:44:00,24.4,15.4,29.67,WSW,241,1.0,6.0,68,0.00,,---,0.00,VWS V14.01,2013-02-18 04:44:00,
2013-02-17 21:49:00,23.9,15.2,29.67,SSE,155,1.0,13.0,69,0.00,,---,0.00,VWS V14.01,2013-02-18 04:49:00,
2013-02-17 21:54:00,23.4,14.8,29.67,SE,138,2.0,13.0,69,0.00,,---,0.00,VWS V14.01,2013-02-18 04:54:00,
2013-02-17 21:59:00,22.7,15.1,29.68,WSW,238,5.0,13.0,72,0.00,,---,0.00,VWS V14.01,2013-02-18 04:59:00,
2013-02-17 22:00:00,22.5,14.9,29.68,SSE,162,5.0,13.0,72,0.00,,---,0.00,VWS V14.01,2013-02-18 05:00:00,
2013-02-17 22:05:00,22.1,14.1,29.67,SSW,205,1.0,2.0,71,0.00,,---,0.00,VWS V14.01,2013-02-18 05:05:00,
2013-02-17 22:10:00,22.0,11.4,29.67,SE,132,3.0,10.0,63,0.00,,---,0.00,VWS V14.01,2013-02-18 05:10:00,
2013-02-17 22:15:00,22.4,9.9,29.67,SE,145,3.0,15.0,58,0.00,,---,0.00,VWS V14.01,2013-02-18 05:15:00,
2013-02-17 22:20:00,22.4,9.1,29.67,East,101,2.0,15.0,56,0.00,,---,0.00,VWS V14.01,2013-02-18 05:20:00,
2013-02-17 22:25:00,22.5,8.4,29.67,SSW,195,0.0,15.0,54,0.00,,---,0.00,VWS V14.01,2013-02-18 05:25:00,
2013-02-17 22:30:00,22.4,7.9,29.68,WNW,293,4.0,15.0,53,0.00,,---,0.00,VWS V14.01,2013-02-18 05:30:00,
2013-02-17 22:35:00,22.7,7.3,29.69,West,278,3.0,9.0,51,0.00,,---,0.00,VWS V14.01,2013-02-18 05:35:00,
2013-02-17 22:40:00,23.0,7.1,29.69,ESE,106,2.0,9.0,50,0.00,,---,0.00,VWS V14.01,2013-02-18 05:40:00,
2013-02-17 22:45:00,22.7,6.9,29.69,SE,130,4.0,13.0,50,0.00,,---,0.00,VWS V14.01,2013-02-18 05:45:00,
2013-02-17 22:50:00,22.3,6.9,29.68,SSW,201,2.0,13.0,51,0.00,,---,0.00,VWS V14.01,2013-02-18 05:50:00,
2013-02-17 22:55:00,21.9,6.6,29.69,ESE,119,4.0,13.0,51,0.00,,---,0.00,VWS V14.01,2013-02-18 05:55:00,
2013-02-17 23:00:00,21.7,6.4,29.69,ESE,109,2.0,13.0,51,0.00,,---,0.00,VWS V14.01,2013-02-18 06:00:00,
2013-02-17 23:05:00,21.5,6.6,29.70,ESE,122,6.0,6.0,52,0.00,,---,0.00,VWS V14.01,2013-02-18 06:05:00,
2013-02-17 23:10:00,21.2,6.3,29.70,NNE,19,1.0,6.0,52,0.00,,---,0.00,VWS V14.01,2013-02-18 06:10:00,
2013-02-17 23:15:00,21.0,6.6,29.70,South,172,6.0,12.0,53,0.00,,---,0.00,VWS V14.01,2013-02-18 06:15:00,
2013-02-17 23:20:00,20.8,6.0,29.70,SSW,198,5.0,12.0,52,0.00,,---,0.00,VWS V14.01,2013-02-18 06:20:00,
2013-02-17 23:25:00,20.6,5.3,29.71,SE,128,4.0,12.0,51,0.00,,---,0.00,VWS V14.01,2013-02-18 06:25:00,
2013-02-17 23:30:00,20.4,5.2,29.71,SE,136,4.0,12.0,51,0.00,,---,0.00,VWS V14.01,2013-02-18 06:30:00,
2013-02-17 23:35:00,20.3,4.6,29.72,NW,311,2.0,6.0,50,0.00,,---,0.00,VWS V14.01,2013-02-18 06:35:00,
2013-02-17 23:40:00,20.2,4.6,29.72,NNE,28,2.0,8.0,50,0.00,,---,0.00,VWS V14.01,2013-02-18 06:40:00,
2013-02-17 23:45:00,20.1,4.5,29.73,ESE,122,6.0,8.0,50,0.00,,---,0.00,VWS V14.01,2013-02-18 06:45:00,
2013-02-17 23:50:00,20.0,4.4,29.73,WSW,248,4.0,10.0,50,0.00,,---,0.00,VWS V14.01,2013-02-18 06:50:00,
2013-02-17 23:55:00,20.0,4.4,29.73,NNW,328,1.0,10.0,50,0.00,,---,0.00,VWS V14.01,2013-02-18 06:55:00,